Newark, NJ

7:24 PM EDT on September 21, 2017 (GMT -0400)
Newark International

Weather History for KEWR - May, 2009

Change the Weather History Date:

Wednesday, May 13, 2009

  Actual Average Record
Temperature  
Mean Temperature 56 °F 62 °F  
Max Temperature 65 °F 71 °F 92 °F (1956)
Min Temperature 46 °F 52 °F 37 °F (1938)
Degree Days  
Heating Degree Days 9 5  
Month to date heating degree days 64 80  
Since 1 July heating degree days 4792 4800  
Cooling Degree Days 0 1  
Month to date cooling degree days 6 13  
Year to date cooling degree days 50 25  
Growing Degree Days 6 (Base 50)    
Moisture  
Dew Point 42 °F    
Average Humidity 59    
Maximum Humidity 77    
Minimum Humidity 40    
Precipitation  
Precipitation 0.00 in 0.12 in 1.79 in (2017)
Month to date precipitation 3.55 1.61  
Year to date precipitation 13.21 16.41  
Snow  
Snow 0.00 in 0.00 in 0.00 in (2002)
Month to date snowfall 0.0 0.0  
Since 1 July snowfall 27.1 28.5  
Snow Depth 0.00 in    
Sea Level Pressure  
Sea Level Pressure 30.38 in    
Wind  
Wind Speed 8 mph (ESE)    
Max Wind Speed 16 mph    
Max Gust Speed 21 mph    
Visibility 10 miles    
Events      
T = Trace of Precipitation, MM = Missing Value Source: NWS Daily Summary

Daily Weather History Graph

Daily Weather History Graph

Search for Another Location

Airport or City:

Trip Planner

Search our weather history database for the weather conditions in past years. The results will help you decide how hot, cold, wet, or windy it might be!

Date:

Astronomy

May. 13, 2009 Rise Set
Actual Time 5:41 AM EDT 8:05 PM EDT
Civil Twilight 5:10 AM EDT 8:36 PM EDT
Nautical Twilight 4:32 AM EDT 9:14 PM EDT
Astronomical Twilight 3:49 AM EDT 9:57 PM EDT
Moon No Moon Rise 8:49 AM EDT (5/13)
Length of Visible Light 15h 25m
Length of Day
14h 23m
Waning Gibbous, 82% of the Moon is Illuminated
May 13
Waning Gibbous
May 17
Last Quarter
May 24
New
May 30
First Quarter
Jun 7
Full

Hourly Weather History & Observations

Time (EDT) Temp. Dew Point Humidity Pressure Visibility Wind Dir Wind Speed Gust Speed Precip Events Conditions
12:51 AM 55.0 °F 43.0 °F 64% 30.30 in 10.0 mi NE 3.5 mph - N/A   Clear
1:51 AM 54.0 °F 43.0 °F 66% 30.30 in 10.0 mi ENE 3.5 mph - N/A   Clear
2:51 AM 51.1 °F 42.1 °F 71% 30.33 in 10.0 mi NNE 4.6 mph - N/A   Clear
3:51 AM 52.0 °F 42.1 °F 69% 30.34 in 10.0 mi NE 5.8 mph - N/A   Clear
4:51 AM 48.9 °F 41.0 °F 74% 30.35 in 10.0 mi NE 5.8 mph - N/A   Clear
5:51 AM 48.0 °F 41.0 °F 77% 30.36 in 10.0 mi NNE 6.9 mph - N/A   Clear
6:51 AM 52.0 °F 45.0 °F 77% 30.37 in 10.0 mi NNE 4.6 mph - N/A   Partly Cloudy
7:51 AM 57.0 °F 46.9 °F 69% 30.38 in 9.0 mi NNE 3.5 mph - N/A   Scattered Clouds
8:51 AM 59.0 °F 45.0 °F 60% 30.40 in 10.0 mi Variable 4.6 mph - N/A   Mostly Cloudy
9:51 AM 63.0 °F 43.0 °F 48% 30.41 in 10.0 mi Variable 4.6 mph - N/A   Scattered Clouds
10:51 AM 63.0 °F 39.0 °F 41% 30.42 in 10.0 mi SE 10.4 mph - N/A   Mostly Cloudy
11:51 AM 64.0 °F 39.9 °F 41% 30.43 in 10.0 mi SE 10.4 mph - N/A   Mostly Cloudy
12:51 PM 63.0 °F 39.0 °F 41% 30.42 in 10.0 mi SE 11.5 mph - N/A   Mostly Cloudy
1:51 PM 63.0 °F 39.0 °F 41% 30.41 in 10.0 mi South 11.5 mph - N/A   Mostly Cloudy
2:51 PM 64.0 °F 39.9 °F 41% 30.41 in 10.0 mi South 12.7 mph - N/A   Mostly Cloudy
3:51 PM 63.0 °F 39.9 °F 43% 30.40 in 10.0 mi SSE 13.8 mph - N/A   Mostly Cloudy
4:51 PM 62.1 °F 42.1 °F 48% 30.39 in 10.0 mi South 9.2 mph - N/A   Mostly Cloudy
5:51 PM 62.1 °F 41.0 °F 46% 30.39 in 10.0 mi SE 9.2 mph - N/A   Scattered Clouds
6:51 PM 60.1 °F 41.0 °F 49% 30.38 in 10.0 mi SSE 8.1 mph - N/A   Scattered Clouds
7:51 PM 57.9 °F 43.0 °F 58% 30.39 in 10.0 mi SE 8.1 mph - N/A   Scattered Clouds
8:51 PM 57.0 °F 45.0 °F 64% 30.38 in 10.0 mi SE 6.9 mph - N/A   Mostly Cloudy
9:51 PM 57.0 °F 46.0 °F 67% 30.38 in 10.0 mi South 6.9 mph - N/A   Mostly Cloudy
10:51 PM 57.0 °F 45.0 °F 64% 30.38 in 10.0 mi South 6.9 mph - N/A   Mostly Cloudy
11:51 PM 57.0 °F 46.0 °F 67% 30.39 in 10.0 mi SSW 8.1 mph - N/A   Overcast